Location: Dover
(39.1580°N, 75.5250°W)
Time: 06:33:26
(UTC-04:00)

ISS - All Passes

Search period start: 28 July 2016 00:00
Search period end: 07 August 2016 00:00
Orbit: 401 x 404 km, 51.6° (Epoch: 28 July)

Date Brightness Start Highest point End Pass type
(mag) Time Alt. Az. Time Alt. Az. Time Alt. Az.
28 Jul - 01:30:48 10° N 01:31:22 10° N 01:31:55 10° NNE visible
28 Jul - 03:05:50 10° NNW 03:08:40 27° NNE 03:11:30 10° E visible
28 Jul - 04:42:08 10° WNW 04:45:08 34° SW 04:48:07 10° SSE visible
28 Jul - 19:46:10 10° SSE 19:47:29 12° SE 19:48:49 10° ESE daylight
28 Jul - 21:20:18 10° WSW 21:23:32 65° NW 21:26:46 10° NE visible
28 Jul - 22:58:35 10° NW 23:00:28 14° NNW 23:02:21 10° NNE visible
29 Jul - 02:13:12 10° NNW 02:15:32 18° NNE 02:17:53 10° ENE visible
29 Jul - 03:49:02 10° NW 03:52:17 74° SW 03:55:31 10° SE visible
29 Jul - 20:27:24 10° SW 20:30:36 61° SE 20:33:49 10° ENE daylight
29 Jul - 22:04:48 10° WNW 22:07:17 20° NNW 22:09:46 10° NNE visible
30 Jul - 01:20:38 10° NNW 01:22:20 13° NNE 01:24:02 10° NE visible
30 Jul - 02:56:08 10° NW 02:59:21 54° NE 03:02:32 10° ESE night (unlit)
30 Jul - 04:33:36 10° W 04:35:27 14° SW 04:37:17 10° SSW night (unlit)
30 Jul - 19:34:55 10° SSW 19:37:47 29° SE 19:40:39 10° ENE daylight
30 Jul - 21:11:14 10° W 21:14:10 30° NNW 21:17:06 10° NE visible
30 Jul - 22:50:34 10° NNW 22:51:25 11° N 22:52:17 10° N visible
31 Jul - 00:28:11 10° N 00:29:04 11° N 00:29:56 10° NNE visible
31 Jul - 02:03:22 10° NW 02:06:19 30° NNE 02:09:15 10° E night (unlit)
31 Jul - 03:39:50 10° WNW 03:42:42 28° SW 03:45:32 10° SSE night (unlit)
31 Jul - 18:43:09 10° SSE 18:45:02 15° SE 18:46:55 10° E daylight
31 Jul - 20:17:57 10° WSW 20:21:07 53° NW 20:24:20 10° NE daylight
31 Jul - 21:56:28 10° NW 21:58:09 13° NNW 21:59:51 10° NNE visible
01 Aug - 01:10:42 10° NNW 01:13:12 20° NNE 01:15:41 10° ENE visible
01 Aug - 02:46:39 10° WNW 02:49:52 60° SW 02:53:04 10° SE night (unlit)
01 Aug - 19:24:57 10° SW 19:28:11 75° SE 19:31:26 10° NE daylight
01 Aug - 21:02:36 10° WNW 21:04:56 18° NNW 21:07:16 10° NNE visible
02 Aug - 00:18:05 10° NNW 00:19:59 14° NNE 00:21:53 10° NE visible
02 Aug - 01:53:41 10° NW 01:56:56 66° NE 02:00:10 10° ESE night (unlit)
02 Aug - 03:31:42 10° WSW 03:32:57 12° SW 03:34:13 10° SSW night (unlit)
02 Aug - 18:32:19 10° SSW 18:35:19 35° SE 18:38:19 10° ENE daylight
02 Aug - 20:08:58 10° W 20:11:47 26° NNW 20:14:36 10° NNE daylight
02 Aug - 21:48:33 10° NNW 21:49:06 10° N 21:49:38 10° N visible
02 Aug - 23:25:36 10° N 23:26:44 11° NNE 23:27:52 10° NNE visible
03 Aug - 01:00:53 10° NW 01:03:55 35° NNE 01:06:57 10° E visible
03 Aug - 02:37:34 10° WNW 02:40:13 23° SW 02:42:52 10° S night (unlit)
03 Aug - 17:40:16 10° S 17:42:32 18° SE 17:44:48 10° E daylight
03 Aug - 19:15:34 10° WSW 19:18:43 45° NNW 19:21:52 10° NE daylight
03 Aug - 20:54:19 10° NW 20:55:48 12° NNW 20:57:17 10° NNE visible
04 Aug - 00:08:11 10° NNW 00:10:49 22° NNE 00:13:27 10° E visible
04 Aug - 01:44:15 10° WNW 01:47:25 48° SW 01:50:33 10° SSE night (unlit)
04 Aug - 18:22:29 10° SW 18:25:44 89° NW 18:29:00 10° NE daylight
04 Aug - 20:00:23 10° WNW 20:02:33 16° NNW 20:04:44 10° NNE daylight
04 Aug - 23:15:33 10° NNW 23:17:38 16° NNE 23:19:43 10° ENE visible
05 Aug - 00:51:14 10° NW 00:54:30 80° NE 00:57:44 10° SE visible
05 Aug - 17:29:44 10° SSW 17:32:50 43° SE 17:35:57 10° ENE daylight
05 Aug - 19:06:41 10° W 19:09:23 23° NNW 19:12:06 10° NNE daylight
05 Aug - 22:23:00 10° N 22:24:23 12° NNE 22:25:45 10° NE visible
05 Aug - 23:58:23 10° NW 00:01:30 41° NNE 00:04:36 10° ESE visible
06 Aug - 01:35:18 10° W 01:37:43 19° SW 01:40:08 10° S night (unlit)
06 Aug - 16:37:29 10° S 16:40:01 21° SE 16:42:34 10° E daylight
06 Aug - 18:13:12 10° WSW 18:16:17 38° NNW 18:19:22 10° NE daylight
06 Aug - 19:52:10 10° NW 19:53:26 12° NNW 19:54:42 10° N daylight
06 Aug - 21:30:48 10° N 21:31:04 10° N 21:31:20 10° NNE visible
06 Aug - 23:05:39 10° NNW 23:08:25 25° NNE 23:11:09 10° E visible
